West Paducah, KY

6:08 AM CST on February 25, 2017 (GMT -0600)
Barkley Regional

Weather History for KPAH - February, 2015

Change the Weather History Date:

Saturday, February 21, 2015

  Actual Average Record
Temperature  
Mean Temperature 33 °F 41 °F  
Max Temperature 35 °F 51 °F 71 °F (1983)
Min Temperature 30 °F 31 °F 1 °F (1963)
Degree Days  
Heating Degree Days 32 24  
Month to date heating degree days 748 563  
Since 1 July heating degree days 3381 3136  
Cooling Degree Days 0 0  
Month to date cooling degree days 0 0  
Year to date cooling degree days 0 0  
Moisture  
Dew Point 31 °F    
Average Humidity 91    
Maximum Humidity 100    
Minimum Humidity 82    
Precipitation  
Precipitation 1.92 in 0.14 in 2.07 in (1974)
Month to date precipitation 4.73 2.94  
Year to date precipitation 7.29 6.62  
Snow  
Snow 0.00 in 0.10 in 0.20 in (2008)
Month to date snowfall 13.0 2.6  
Since 1 July snowfall 16.5 7.9  
Snow Depth 0.00 in    
Sea Level Pressure  
Sea Level Pressure 29.92 in    
Wind  
Wind Speed 7 mph (NNE)    
Max Wind Speed 15 mph    
Max Gust Speed 18 mph    
Visibility 4 miles    
Events Rain    
T = Trace of Precipitation, MM = Missing Value Source: NWS Daily Summary

Daily Weather History Graph

Daily Weather History Graph

Search for Another Location

Airport or City:

Trip Planner

Search our weather history database for the weather conditions in past years. The results will help you decide how hot, cold, wet, or windy it might be!

Date:

Astronomy

Feb. 21, 2015 Rise Set
Actual Time 6:36 AM CST 5:41 PM CST
Civil Twilight 6:10 AM CST 6:07 PM CST
Nautical Twilight 5:40 AM CST 6:37 PM CST
Astronomical Twilight 5:10 AM CST 7:07 PM CST
Moon 8:13 AM CST (2/21) 9:10 PM CST (2/21)
Length of Visible Light 11h 56m
Length of Day
11h 04m
Waxing Crescent, 11% of the Moon is Illuminated
Feb 21
Waxing Crescent
Feb 25
First Quarter
Mar 5
Full
Mar 13
Last Quarter
Mar 20
New

Hourly Weather History & Observations

Time (CST) Temp. Windchill Dew Point Humidity Pressure Visibility Wind Dir Wind Speed Gust Speed Precip Events Conditions
12:36 AM 33.1 °F 24.4 °F 30.0 °F 89% 29.89 in 2.5 mi SE 11.5 mph - 0.19 in Rain Light Freezing Rain
12:53 AM 33.1 °F 30.0 °F 32.0 °F 96% 29.93 in 1.5 mi Variable 3.5 mph - 0.32 in Rain Light Freezing Rain
1:07 AM 33.1 °F - 30.9 °F 92% 29.87 in 1.8 mi North - - 0.11 in Rain Heavy Rain
1:15 AM 33.1 °F 25.5 °F 30.9 °F 92% 29.88 in 2.0 mi SSE 9.2 mph - 0.16 in Rain Heavy Rain
1:53 AM 33.1 °F - 32.0 °F 96% 29.89 in 2.0 mi Calm Calm - 0.37 in Rain Rain
2:21 AM 33.1 °F 30.0 °F 32.0 °F 96% 29.88 in 1.8 mi SSE 3.5 mph - 0.14 in Rain Rain
2:50 AM 33.8 °F 29.6 °F 32.0 °F 93% 29.88 in 2.0 mi NNW 4.6 mph - 0.26 in Rain Light Rain
2:53 AM 33.1 °F - 32.0 °F 96% 29.90 in 1.8 mi Calm Calm - 0.26 in Rain Light Rain
3:06 AM 33.1 °F - 32.0 °F 96% 29.87 in 1.8 mi Calm Calm - 0.07 in Rain Rain
3:28 AM 33.1 °F - 32.0 °F 96% 29.87 in 1.2 mi Calm Calm - 0.10 in Rain Rain
3:53 AM 33.1 °F 30.0 °F 32.0 °F 96% 29.86 in 1.0 mi NE 3.5 mph - 0.14 in Rain Light Rain
4:05 AM 33.1 °F 30.0 °F 32.0 °F 96% 29.85 in 1.5 mi East 3.5 mph - 0.01 in Rain Light Rain
4:21 AM 33.1 °F - 30.9 °F 92% 29.85 in 1.0 mi North - - 0.01 in Rain Light Rain
4:30 AM 33.1 °F - 32.0 °F 96% 29.85 in 1.0 mi North - - 0.05 in Rain Rain
4:53 AM 33.1 °F - 32.0 °F 96% 29.87 in 1.2 mi North - - 0.09 in Rain Light Rain
5:20 AM 33.1 °F - 32.0 °F 96% 29.87 in 1.5 mi North - - 0.09 in Rain Rain
5:39 AM 33.1 °F - 32.0 °F 96% 29.87 in 2.5 mi North - - 0.16 in Rain Rain
5:53 AM 33.1 °F - 32.0 °F 96% 29.84 in 3.0 mi North - - 0.21 in Rain Rain
6:02 AM 34.0 °F - 32.0 °F 92% 29.83 in 2.5 mi North - - 0.04 in Rain Rain
6:14 AM 34.0 °F - 33.1 °F 96% 29.83 in 3.0 mi North - - 0.08 in Rain Rain
6:53 AM 34.0 °F - 33.1 °F 96% 29.84 in 3.0 mi North - - 0.22 in Rain Rain
7:04 AM 34.0 °F - 33.1 °F 96% 29.83 in 2.5 mi North - - 0.05 in Rain Rain
7:21 AM 34.0 °F - 32.0 °F 92% 29.83 in 3.0 mi North - - 0.09 in Rain Light Rain
7:33 AM 33.1 °F - 32.0 °F 96% 29.84 in 2.0 mi North - - 0.11 in Rain Rain
7:40 AM 33.1 °F - 32.0 °F 96% 29.84 in 2.0 mi North - - 0.12 in Rain Light Rain
7:53 AM 33.8 °F - 32.0 °F 93% 29.84 in 2.5 mi North - - N/A Rain Light Rain
8:07 AM 33.1 °F - 32.0 °F 96% 29.85 in 3.0 mi North - - 0.01 in Rain Light Rain
8:23 AM 33.1 °F - 32.0 °F 96% 29.86 in 2.5 mi North - - 0.02 in Rain Light Rain
8:44 AM 33.1 °F - 33.1 °F 100% 29.85 in 2.0 mi North - - 0.03 in Rain Light Rain
8:53 AM 33.1 °F - 32.0 °F 96% 29.86 in 2.5 mi North - - 0.04 in Rain Light Rain
9:04 AM 33.1 °F - 32.0 °F 96% 29.86 in 3.0 mi North - - 0.00 in   Overcast
9:23 AM 34.0 °F - 32.0 °F 92% 29.87 in 4.0 mi North - - 0.00 in   Overcast
9:53 AM 34.0 °F - 32.0 °F 92% 29.88 in 4.0 mi North - - 0.01 in Rain Light Rain
10:53 AM 34.0 °F 27.2 °F 32.0 °F 92% 29.88 in 4.0 mi NNE 8.1 mph - 0.02 in Rain Rain
11:03 AM 34.0 °F 28.0 °F 32.0 °F 92% 29.87 in 2.5 mi NNE 6.9 mph - 0.02 in Rain Light Rain
11:15 AM 34.0 °F 28.0 °F 32.0 °F 92% 29.89 in 3.0 mi North 6.9 mph - 0.03 in Rain Light Rain
11:53 AM 34.0 °F 28.0 °F 32.0 °F 92% 29.90 in 6.0 mi North 6.9 mph - 0.06 in Rain Light Rain
12:02 PM 34.0 °F 28.8 °F 32.0 °F 92% 29.88 in 5.0 mi NNE 5.8 mph - 0.01 in Rain Light Rain
12:22 PM 34.0 °F 26.0 °F 32.0 °F 92% 29.89 in 7.0 mi NNW 10.4 mph - 0.02 in Rain Light Rain
12:53 PM 34.0 °F 27.2 °F 32.0 °F 92% 29.90 in 4.0 mi North 8.1 mph - 0.04 in Rain Light Rain
1:53 PM 34.0 °F 26.6 °F 32.0 °F 92% 29.91 in 9.0 mi North 9.2 mph - 0.04 in Rain Light Rain
2:53 PM 35.1 °F 29.3 °F 30.9 °F 85% 29.94 in 10.0 mi North 6.9 mph - 0.00 in   Overcast
3:53 PM 35.1 °F 27.9 °F 30.9 °F 85% 29.97 in 10.0 mi NNE 9.2 mph - N/A   Overcast
4:28 PM 35.1 °F 27.9 °F 30.9 °F 85% 29.98 in 10.0 mi North 9.2 mph - N/A   Overcast
4:53 PM 35.1 °F 27.9 °F 30.9 °F 85% 30.02 in 10.0 mi North 9.2 mph - N/A   Overcast
5:53 PM 35.1 °F 25.9 °F 30.0 °F 82% 30.04 in 10.0 mi North 13.8 mph - N/A   Overcast
6:53 PM 34.0 °F 26.6 °F 30.9 °F 89% 30.08 in 10.0 mi North 9.2 mph - N/A   Overcast
7:53 PM 32.0 °F 23.0 °F 30.0 °F 92% 30.11 in 7.0 mi North 11.5 mph - N/A   Overcast
8:53 PM 33.1 °F 24.9 °F 28.9 °F 85% 30.15 in 8.0 mi NNE 10.4 mph - N/A   Overcast
9:50 PM 32.0 °F 25.6 °F 28.4 °F 87% 30.16 in 8.0 mi NE 6.9 mph - N/A   Scattered Clouds
9:53 PM 32.0 °F 26.4 °F 30.0 °F 92% 30.17 in 8.0 mi NE 5.8 mph - N/A   Partly Cloudy
10:53 PM 32.0 °F 28.7 °F 28.9 °F 88% 30.17 in 7.0 mi NE 3.5 mph - N/A   Clear
11:53 PM 30.0 °F - 28.9 °F 96% 30.18 in 4.0 mi Calm Calm - N/A   Clear